Погода в Ковентри

Великобритания     52°24′33″N   1°30′12″W
темп.,
°C
ветер,
м/с
пор.,
м/с
влажн.,
%
обл.,
%
осадки,
мм/ч
давл.,
гПа
погр.,
м
3 марта, ср
ср300:00+2вюв22971 0.0 103022
03:00+1всв119858 0.0 102822
06:00+2вюв229772 0.0 102867
09:00+4вюв2395100 0.0 1028206
12:00+5вюв2394100 0.0 1028289
15:00+5в2395100 0.7 1026188
18:00+5св349599 0.8 1026185
21:00+4св3595100 0.0 1025243
4 марта, чт
чт400:00+4св3695100 0.0 1025253
03:00+3св4793100 0.0 1024345
06:00+2ссв4792100 0.0 1025443
09:00+3св468799 0.1 1026518
12:00+5ссв467899 0.1 1026776
15:00+5св3576100 0.1 1026820
18:00+5ссв3784100 0.1 1027386
21:00+1св4108761 0.0 1028406
5 марта, пт
пт500:000св498148 0.0 1029291
03:00+1ссв387685 0.0 1030451
06:00+2св377292 0.0 1031622
09:00+3всв5765100 0.0 10311071
12:00+4всв4662100 0.0 10331158
15:00+5всв456295 0.0 10331178
18:00+3всв247096 0.0 1033128
21:000вюв237881 0.0 103435
6 марта, сб
сб600:00−1вюв228641 0.0 103524
03:00−2вюв128613 0.0 103521
06:00−2вюв118444 0.0 103521
09:00+2юв116621 0.0 1035279
12:00+5ю225510 0.0 10341037
15:00+6ююз23550 0.0 10321007
18:00+2ю22740 0.0 103122
21:000ю23800 0.0 103124
7 марта, вс
вс700:000юз238220 0.0 103138
03:00−1юз23860 0.0 102934
06:00−1зюз238434 0.0 102834
09:00+2зюз3573100 0.0 1027350
12:00+5з3364100 0.0 1025697
15:00+7з2362100 0.0 10231005
18:00+3зсз1179100 0.0 102222
21:00+1ссз118892 0.0 102222